Temp
69 67 68 70 70 72 75 76 79 79 81 81 81 82 81 81 79 78 78 78 78 78 78 78 76 77 77 77 76 78 77 76 74 71 72 74 71 72 74 73 73 73 71 73 72 69 66 61 62 68 71 71 71 72 72 72 73 72 72 73 74 75 75
70 69 71 72 72 74 73 76 78 80 80 81 82 81 81 82 80 80 80 79 78 78 80 80 78 78 77 74 75 75 75 75 74 71 71 70 73 73 72 72 74 74 73 72 70 69 67 66 65 65 65 70 70 70 70 72 74 73 74 74 76 77 75
71 70 69 69 69 72 72 75 77 77 79 79 80 81 81 82 81 80 79 79 78 78 78 80 78 77 76 75 76 75 75 72 72 71 71 70 73 71 73 73 72 72 74 72 67 70 68 68 63 64 67 66 64 67 71 72 73 74 75 75 76 78 76
70 69 66 67 68 69 72 75 76 77 78 78 79 79 80 81 80 80 80 80 79 79 79 79 77 78 75 76 75 76 75 72 72 72 71 72 72 71 71 72 75 73 69 66 68 69 67 65 64 66 67 70 68 66 69 74 74 76 77 75 75 75 76
69 68 67 67 68 71 74 74 77 78 78 78 78 78 78 79 79 79 79 79 79 78 78 78 76 79 78 78 76 75 74 73 73 71 71 70 72 73 72 72 72 71 72 71 70 63 64 67 68 67 68 71 72 73 74 72 76 77 74 76 77 77 76
68 66 65 66 69 72 74 75 76 77 78 77 78 77 77 78 79 77 78 78 78 78 79 79 79 78 78 78 77 77 74 73 73 73 71 71 71 70 73 73 75 74 71 72 71 70 69 70 69 68 70 72 67 69 74 75 72 76 77 76 77 77 78
67 66 65 65 70 74 76 76 77 77 77 76 77 77 78 79 79 79 79 79 80 80 79 79 79 79 78 79 77 76 77 76 75 73 72 71 71 72 73 73 74 74 73 70 68 71 71 69 65 69 70 70 71 71 74 75 77 74 75 78 78 80 81
67 64 64 67 74 76 77 77 78 79 77 77 78 78 79 79 79 79 79 79 79 79 79 78 79 78 78 78 77 76 77 77 77 75 72 71 71 71 72 72 73 73 71 70 64 69 74 74 72 73 70 67 67 70 70 75 76 75 74 78 81 80 78
65 66 68 74 76 77 77 78 78 78 78 78 79 79 78 79 78 78 79 79 79 79 79 79 78 78 77 77 77 77 76 79 76 75 71 72 71 70 71 72 73 74 73 71 71 73 74 74 75 75 72 72 67 64 69 68 72 74 78 76 79 79 78
67 68 72 75 76 77 78 78 78 79 79 79 78 78 78 79 78 79 79 78 78 78 78 78 78 78 77 77 77 75 76 77 76 76 76 76 75 74 71 71 73 73 72 70 73 74 74 74 76 75 77 73 72 69 65 66 67 69 75 78 74 76 79
70 73 75 76 76 77 77 78 78 78 78 78 79 78 78 78 78 79 78 77 77 78 77 78 79 78 77 77 77 77 77 77 76 76 76 76 75 75 73 73 73 72 69 72 73 74 74 74 77 77 77 78 76 71 69 66 67 72 72 75 77 76 78
75 76 76 77 77 77 77 78 77 78 78 78 78 77 77 78 78 78 78 77 77 77 78 78 78 78 78 77 76 77 77 77 76 75 76 76 76 75 75 73 72 71 71 73 70 73 75 77 77 79 78 78 77 75 72 69 66 71 77 74 77 80 78
77 77 77 76 76 77 78 78 77 76 76 78 78 78 79 78 78 77 78 77 77 77 78 78 79 78 77 77 77 77 77 77 77 76 76 77 78 76 75 72 73 71 70 75 77 76 77 79 80 80 79 78 77 76 74 71 68 67 74 75 76 78 79
75 76 77 77 76 77 77 77 77 76 78 77 78 78 78 78 79 78 79 78 78 77 77 77 78 77 78 78 78 77 78 78 77 77 76 75 78 76 74 73 72 75 76 76 75 77 78 80 80 80 79 79 78 78 75 72 71 70 74 77 76 78 79
76 76 75 76 76 77 77 77 77 77 76 78 78 79 79 79 79 79 79 79 78 79 78 79 79 79 78 77 77 78 78 78 77 76 76 76 76 77 75 75 74 74 76 76 76 80 80 79 81 81 80 79 79 78 80 78 73 71 68 73 75 79 78
75 75 74 74 75 76 77 77 78 77 77 77 78 78 79 78 79 79 79 79 79 79 79 79 78 79 77 77 78 78 78 77 76 75 75 76 78 78 75 74 76 77 77 76 77 78 78 80 82 82 79 81 79 78 81 79 75 71 70 71 75 76 75
75 74 74 74 74 75 76 76 78 77 77 77 77 78 79 79 79 79 78 79 79 79 79 78 79 79 79 79 78 78 78 77 77 76 75 77 78 77 76 75 75 76 76 76 77 77 78 79 80 80 79 78 77 77 77 77 78 73 73 71 73 77 77
74 73 74 74 74 75 75 76 76 76 76 76 78 78 78 80 79 79 77 79 79 79 79 79 79 79 78 78 79 78 78 79 78 78 77 77 75 76 75 75 75 76 76 75 76 77 78 77 81 78 78 79 78 77 76 77 77 78 74 71 72 76 77
74 74 74 74 74 75 76 76 75 74 76 77 77 78 78 79 80 80 80 80 80 80 80 80 80 79 79 79 78 78 78 78 78 79 78 78 78 78 77 77 77 77 77 75 75 76 77 77 79 78 78 80 81 78 76 76 76 76 76 75 73 72 75
75 75 75 75 75 76 77 76 76 76 77 77 77 77 78 79 79 80 80 80 80 80 80 79 79 78 79 79 78 78 77 77 78 78 79 79 79 78 78 78 77 77 76 77 76 75 76 76 76 76 77 76 78 77 74 76 76 76 74 74 75 74 75
74 76 76 76 76 76 76 76 77 77 77 77 76 78 78 78 78 80 80 80 80 80 79 80 80 79 80 79 77 78 77 77 77 77 78 79 79 79 79 79 78 79 78 77 76 77 77 76 76 76 77 77 77 76 75 75 75 75 74 73 73 72 74
64 72 74 72 75 75 76 76 77 77 77 76 77 78 78 78 78 79 79 79 79 79 78 78 77 76 79 78 78 77 77 78 77 77 77 78 78 78 79 79 79 77 71 62 55 59 59 61 74 75 76 76 76 75 74 75 75 75 75 73 73 72 71
64 63 72 73 74 74 76 76 75 76 76 76 77 77 78 77 78 78 77 78 78 77 77 71 52 43 49 67 76 79 77 77 77 77 77 76 77 78 78 77 73 60 58 58 55 51 49 49 52 65 71 74 74 74 74 73 74 75 74 73 72 72 69
64 64 70 73 73 73 74 75 75 75 75 75 74 75 76 77 77 77 78 77 76 75 70 59 42 41 42 42 62 75 77 77 78 77 77 76 76 76 77 78 76 69 67 64 61 43 47 50 49 46 47 49 57 69 72 71 72 72 72 72 71 72 71
63 63 62 65 68 70 72 73 73 74 73 72 72 73 73 74 74 75 76 76 74 69 61 44 40 42 41 41 45 61 73 77 76 77 77 77 77 77 76 77 77 75 76 75 76 69 60 48 50 51 50 50 48 45 50 65 70 71 71 70 69 70 70
60 60 61 62 64 65 66 68 70 71 70 71 71 71 71 71 71 72 73 71 67 63 58 42 41 41 42 41 41 51 71 76 77 77 77 77 77 77 77 76 76 76 78 66 73 76 76 70 51 42 44 44 45 46 46 44 49 65 71 70 69 68 69
60 60 60 60 61 61 62 63 64 66 66 67 66 66 66 66 67 68 69 66 60 55 51 43 40 40 41 40 40 45 68 72 76 77 77 77 77 77 77 76 75 72 73 72 74 74 75 74 73 69 68 71 72 64 48 44 42 39 50 66 68 68 71
63 62 61 61 60 60 60 61 62 62 62 62 62 62 63 63 64 67 65 61 56 52 48 39 39 39 40 40 39 45 67 71 74 74 74 75 76 76 76 75 75 73 67 62 66 63 71 73 71 69 69 69 70 71 72 69 68 68 65 66 69 70 71
65 65 63 62 60 59 60 61 61 60 60 60 60 61 62 64 63 65 62 60 57 54 49 38 39 39 39 40 41 62 70 72 73 74 73 74 75 75 75 74 73 72 74 65 55 44 54 67 71 70 68 68 65 64 62 56 42 47 60 67 68 66 65
61 63 63 62 60 59 60 60 61 63 61 61 61 61 61 61 63 63 62 61 58 55 51 42 38 39 39 38 48 67 70 72 73 73 73 73 74 68 65 63 66 71 65 62 45 41 41 49 69 69 69 69 66 65 63 60 49 43 42 43 41 44 43
62 61 62 62 59 58 58 59 60 61 61 60 62 64 63 61 58 56 57 57 57 54 51 43 38 39 39 38 44 62 70 70 70 70 71 72 72 67 59 54 62 66 63 56 39 40 38 50 64 67 67 66 63 62 63 64 63 57 39 39 38 38 41
60 60 60 59 58 57 56 58 60 60 58 60 62 64 63 61 59 56 56 56 55 54 52 47 39 38 38 39 46 61 67 70 69 65 66 64 70 68 60 54 46 50 53 45 38 39 39 46 61 65 66 65 63 63 65 66 63 64 64 64 62 59 57
63 63 62 61 61 61 60 59 60 60 60 59 55 57 59 59 58 59 59 59 59 58 55 51 44 38 39 41 39 55 68 68 68 67 68 68 68 69 65 60 51 39 38 38 39 37 40 37 51 59 62 65 65 63 62 65 64 63 64 66 67 65 66
64 64 63 61 61 59 60 60 60 60 60 60 58 56 56 58 59 59 59 58 56 56 56 55 47 38 41 41 41 49 64 61 62 65 67 68 69 69 68 63 57 41 38 38 38 36 38 37 38 50 57 63 57 49 50 64 62 53 66 67 67 66 67
63 63 64 64 64 64 65 67 68 66 64 62 60 60 59 59 58 56 57 56 56 55 53 50 54 43 39 40 40 41 55 56 51 56 61 64 64 64 64 63 57 44 38 39 38 38 37 38 37 48 57 43 40 40 52 57 64 67 66 67 67 66 66
61 62 62 64 64 64 65 66 66 66 65 64 63 62 63 63 62 61 60 59 58 58 57 54 46 49 40 40 38 40 38 46 40 53 59 61 62 63 63 61 57 43 38 38 39 38 38 37 40 52 40 39 40 38 45 61 64 64 65 66 66 65 65
61 62 62 63 63 62 63 64 65 65 66 66 65 65 65 65 65 64 63 63 63 62 61 59 48 45 45 38 40 39 40 37 38 48 51 60 61 62 60 58 53 39 38 38 38 39 39 39 48 42 38 39 38 41 53 57 58 61 58 58 59 60 62
MSLP
1016.11 1016.47 1016.39 1016.31 1016.63 1016.67 1016.11 1015.83 1015.47 1015.55 1015.39 1015.55 1015.75 1015.79 1016.03 1016.27 1016.63 1016.87 1016.99 1017.07 1017.11 1017.23 1017.39 1017.47 1017.71 1017.67 1017.79 1017.95 1018.11 1018.15 1018.39 1018.59 1019.03 1019.59 1019.59 1019.47 1019.99 1019.95 1019.71 1019.87 1019.95 1019.83 1020.11 1020.15 1020.23 1020.83 1021.51 1022.47 1022.79 1022.03 1021.75 1021.79 1021.79 1021.79 1021.75 1021.83 1021.87 1021.99 1022.07 1022.03 1021.95 1021.87 1021.87
1016.15 1016.43 1016.23 1016.43 1016.43 1016.03 1016.15 1015.75 1015.59 1015.51 1015.55 1015.55 1015.67 1015.91 1016.07 1016.23 1016.55 1016.71 1016.83 1017.07 1017.15 1017.27 1017.27 1017.27 1017.51 1017.63 1017.83 1018.27 1018.39 1018.51 1018.71 1018.83 1019.11 1019.47 1019.71 1019.99 1019.71 1019.71 1019.91 1019.95 1019.87 1019.83 1019.99 1020.31 1020.47 1020.87 1021.31 1021.75 1022.27 1022.43 1022.47 1021.95 1021.95 1022.11 1022.07 1021.91 1021.83 1021.91 1021.91 1021.91 1021.75 1021.75 1021.95
1016.15 1016.31 1016.39 1016.51 1016.51 1016.27 1016.31 1015.99 1015.83 1015.79 1015.71 1015.87 1015.83 1015.87 1016.11 1016.23 1016.55 1016.71 1016.91 1017.03 1017.23 1017.27 1017.31 1017.19 1017.51 1017.63 1017.91 1018.19 1018.31 1018.43 1018.55 1019.07 1019.23 1019.51 1019.63 1019.91 1019.63 1019.83 1019.71 1019.75 1020.03 1020.03 1019.71 1020.15 1020.83 1020.71 1021.15 1021.23 1022.19 1022.31 1022.15 1022.23 1022.63 1022.51 1022.11 1022.03 1021.91 1021.83 1021.87 1021.83 1021.83 1021.67 1021.79
1016.23 1016.47 1016.75 1016.55 1016.71 1016.43 1016.39 1016.15 1016.03 1015.87 1015.75 1015.95 1015.99 1016.07 1016.23 1016.27 1016.63 1016.75 1016.91 1017.07 1017.15 1017.27 1017.27 1017.39 1017.51 1017.67 1018.07 1018.11 1018.27 1018.39 1018.59 1019.11 1019.43 1019.43 1019.55 1019.67 1019.71 1019.83 1019.87 1019.75 1019.51 1019.83 1020.59 1021.07 1020.95 1020.99 1021.51 1021.71 1022.07 1021.87 1021.83 1021.63 1022.15 1022.67 1022.23 1021.79 1021.79 1021.79 1021.79 1021.91 1021.99 1022.07 1021.87
1016.35 1016.55 1016.55 1016.83 1016.83 1016.59 1016.35 1016.39 1016.03 1015.91 1015.91 1015.95 1016.11 1016.31 1016.51 1016.55 1016.79 1016.95 1017.03 1017.11 1017.31 1017.39 1017.47 1017.55 1017.83 1017.47 1017.67 1017.87 1018.23 1018.31 1018.67 1018.91 1019.15 1019.43 1019.51 1019.75 1019.75 1019.83 1019.91 1019.83 1019.87 1020.23 1020.27 1020.47 1020.91 1021.95 1021.59 1021.39 1021.27 1021.55 1021.55 1021.43 1021.59 1021.71 1021.79 1021.87 1021.47 1021.51 1021.87 1021.91 1021.83 1021.91 1022.03
1016.35 1016.83 1016.83 1017.07 1017.07 1016.79 1016.47 1016.27 1016.19 1016.19 1016.07 1016.31 1016.35 1016.51 1016.75 1016.87 1016.87 1017.19 1017.27 1017.31 1017.39 1017.35 1017.35 1017.39 1017.47 1017.55 1017.63 1017.75 1017.99 1018.27 1018.55 1018.91 1019.03 1019.15 1019.47 1019.63 1019.75 1019.99 1019.87 1019.79 1019.63 1019.87 1020.35 1020.23 1020.47 1020.99 1021.23 1020.95 1021.23 1021.35 1021.15 1021.03 1021.87 1021.99 1021.71 1021.59 1022.03 1021.63 1021.67 1021.79 1021.71 1021.87 1021.95
1016.39 1016.47 1016.99 1017.47 1017.23 1016.39 1016.19 1016.19 1016.15 1016.15 1016.27 1016.47 1016.55 1016.63 1016.71 1016.83 1016.91 1017.03 1017.11 1017.11 1017.11 1017.19 1017.35 1017.43 1017.51 1017.59 1017.71 1017.75 1017.87 1018.27 1018.23 1018.39 1018.59 1019.07 1019.27 1019.51 1019.67 1019.71 1019.75 1019.87 1019.87 1019.87 1020.15 1020.47 1020.63 1020.55 1020.67 1020.95 1021.63 1021.03 1020.87 1021.23 1021.43 1021.71 1021.47 1021.39 1021.39 1021.79 1021.87 1021.51 1021.63 1021.63 1021.59
1015.75 1016.15 1017.03 1017.79 1016.75 1016.23 1016.07 1016.11 1016.03 1015.99 1016.23 1016.39 1016.55 1016.59 1016.75 1016.87 1016.99 1017.15 1017.19 1017.27 1017.35 1017.35 1017.35 1017.51 1017.55 1017.63 1017.71 1017.83 1017.99 1018.11 1018.15 1018.23 1018.35 1018.79 1019.31 1019.51 1019.67 1019.87 1019.91 1019.95 1019.95 1020.11 1020.27 1020.43 1020.91 1020.91 1020.47 1020.27 1020.67 1020.51 1020.95 1021.75 1021.83 1021.63 1021.71 1021.31 1021.31 1021.51 1021.83 1021.43 1021.15 1021.67 1022.23
1015.71 1015.99 1016.79 1016.43 1016.07 1015.95 1016.07 1016.07 1016.03 1016.07 1016.11 1016.35 1016.39 1016.63 1016.83 1016.87 1017.15 1017.27 1017.39 1017.43 1017.43 1017.43 1017.43 1017.47 1017.59 1017.63 1017.87 1017.91 1018.03 1018.19 1018.31 1018.23 1018.43 1018.83 1019.27 1019.27 1019.63 1019.91 1019.91 1019.91 1019.95 1020.07 1020.11 1020.43 1020.67 1020.27 1020.19 1020.03 1020.07 1020.15 1020.59 1020.83 1021.71 1022.43 1021.87 1022.15 1021.91 1021.67 1021.31 1021.79 1021.63 1022.11 1022.43
1015.43 1015.91 1015.99 1015.87 1015.83 1015.83 1015.91 1015.95 1015.99 1016.07 1016.15 1016.35 1016.55 1016.75 1016.91 1016.99 1017.15 1017.15 1017.31 1017.55 1017.59 1017.51 1017.59 1017.59 1017.63 1017.67 1017.83 1017.91 1018.07 1018.31 1018.51 1018.35 1018.47 1018.59 1018.59 1018.79 1018.99 1019.23 1019.67 1019.87 1019.87 1020.07 1020.31 1020.35 1020.15 1020.03 1020.07 1020.11 1019.95 1020.19 1020.19 1020.63 1020.87 1021.55 1022.35 1022.47 1022.55 1022.47 1021.87 1021.75 1022.59 1022.59 1022.35
1014.95 1015.31 1015.39 1015.59 1015.71 1015.83 1015.95 1015.99 1016.07 1016.31 1016.43 1016.47 1016.71 1016.91 1016.99 1017.19 1017.27 1017.27 1017.43 1017.67 1017.63 1017.63 1017.71 1017.63 1017.55 1017.71 1017.87 1017.99 1018.11 1018.31 1018.39 1018.43 1018.55 1018.55 1018.63 1018.71 1018.91 1019.11 1019.55 1019.87 1019.91 1020.11 1020.71 1020.23 1020.19 1019.99 1020.07 1020.19 1019.91 1019.99 1019.99 1019.99 1020.31 1021.31 1021.75 1022.31 1022.47 1021.79 1022.11 1021.79 1021.87 1022.59 1022.55
1014.39 1014.75 1015.15 1015.39 1015.59 1015.83 1015.99 1016.07 1016.35 1016.39 1016.47 1016.63 1016.83 1016.99 1017.19 1017.31 1017.43 1017.51 1017.55 1017.79 1017.79 1017.79 1017.71 1017.75 1017.71 1017.79 1017.87 1018.15 1018.23 1018.31 1018.35 1018.43 1018.63 1018.79 1018.67 1018.71 1018.87 1019.07 1019.31 1019.75 1020.03 1020.31 1020.55 1020.03 1020.31 1020.11 1019.91 1019.75 1019.79 1019.63 1019.79 1019.83 1020.03 1020.47 1021.27 1022.03 1022.71 1022.03 1021.31 1021.71 1021.71 1021.95 1022.47
1014.23 1014.59 1014.91 1015.27 1015.59 1015.75 1015.75 1016.07 1016.43 1016.63 1016.71 1016.71 1016.87 1016.99 1017.03 1017.27 1017.39 1017.59 1017.67 1017.83 1017.95 1017.91 1017.91 1017.87 1017.75 1017.95 1018.03 1018.11 1018.19 1018.27 1018.39 1018.39 1018.55 1018.79 1018.75 1018.71 1018.87 1019.03 1019.31 1019.83 1019.87 1020.35 1020.27 1019.67 1019.59 1019.79 1019.79 1019.51 1019.35 1019.55 1019.87 1020.07 1020.23 1020.35 1020.91 1021.63 1022.19 1022.79 1021.71 1021.87 1022.03 1022.03 1022.19
1014.23 1014.59 1014.83 1015.11 1015.47 1015.59 1015.75 1016.11 1016.39 1016.59 1016.67 1016.75 1016.83 1016.95 1016.95 1017.23 1017.31 1017.47 1017.63 1017.83 1017.87 1017.95 1017.99 1017.99 1017.91 1018.03 1018.07 1018.11 1018.07 1018.23 1018.35 1018.35 1018.55 1018.67 1018.79 1018.99 1018.83 1019.03 1019.39 1019.83 1019.99 1019.63 1019.43 1019.51 1019.83 1019.83 1019.75 1019.63 1019.59 1019.63 1019.75 1020.03 1020.19 1020.07 1020.55 1021.31 1021.75 1022.31 1021.75 1021.59 1021.91 1022.03 1022.07
1014.11 1014.47 1014.79 1015.11 1015.39 1015.59 1015.95 1016.19 1016.35 1016.51 1016.75 1016.71 1016.71 1016.87 1016.91 1017.11 1017.27 1017.39 1017.55 1017.67 1017.83 1017.91 1017.91 1017.95 1017.95 1017.95 1018.07 1018.23 1018.35 1018.19 1018.27 1018.47 1018.67 1018.87 1018.83 1018.91 1018.87 1018.91 1019.11 1019.39 1019.67 1019.67 1019.55 1019.83 1019.79 1019.71 1019.83 1019.87 1019.71 1019.75 1019.83 1019.87 1020.11 1020.19 1019.67 1020.19 1021.47 1022.11 1022.67 1022.19 1022.07 1021.75 1022.19
1014.19 1014.55 1014.83 1015.15 1015.39 1015.67 1015.99 1016.19 1016.27 1016.59 1016.71 1016.75 1016.71 1016.79 1016.87 1017.11 1017.23 1017.35 1017.59 1017.71 1017.83 1017.91 1017.91 1017.99 1017.99 1018.03 1018.23 1018.39 1018.39 1018.35 1018.31 1018.59 1018.87 1018.99 1018.95 1018.83 1018.75 1018.91 1019.19 1019.43 1019.27 1019.31 1019.47 1019.75 1019.71 1019.59 1019.75 1019.67 1019.43 1019.55 1019.87 1019.75 1020.11 1020.19 1019.79 1020.11 1021.11 1021.87 1022.27 1022.35 1021.87 1021.99 1022.19
1014.11 1014.47 1014.87 1015.11 1015.47 1015.67 1015.91 1016.31 1016.27 1016.51 1016.55 1016.71 1016.87 1016.87 1016.87 1017.11 1017.19 1017.39 1017.63 1017.79 1017.87 1017.95 1017.95 1018.07 1018.11 1018.11 1018.27 1018.35 1018.43 1018.51 1018.55 1018.67 1018.83 1018.95 1019.07 1018.83 1018.75 1019.03 1019.23 1019.43 1019.51 1019.55 1019.63 1019.83 1019.75 1019.87 1019.75 1019.63 1019.51 1019.75 1019.95 1020.19 1020.39 1020.43 1020.43 1020.39 1020.35 1021.11 1021.51 1022.07 1021.91 1021.63 1021.91
1014.11 1014.55 1014.83 1015.19 1015.55 1015.79 1016.07 1016.23 1016.43 1016.63 1016.63 1016.75 1016.79 1016.95 1017.11 1017.07 1017.31 1017.43 1017.75 1017.79 1017.95 1017.99 1018.07 1018.11 1018.19 1018.23 1018.27 1018.35 1018.39 1018.51 1018.55 1018.55 1018.63 1018.71 1018.83 1018.99 1019.11 1019.27 1019.43 1019.55 1019.63 1019.63 1019.79 1019.95 1019.99 1019.91 1019.79 1019.95 1019.63 1019.95 1020.11 1020.23 1020.27 1020.51 1020.71 1020.67 1020.59 1020.51 1020.99 1021.75 1021.87 1021.39 1021.43
1014.15 1014.43 1014.79 1015.23 1015.55 1015.83 1016.03 1016.27 1016.55 1016.55 1016.63 1016.75 1016.87 1016.99 1017.15 1017.15 1017.27 1017.51 1017.67 1017.67 1017.79 1017.95 1017.99 1018.03 1018.11 1018.27 1018.39 1018.43 1018.51 1018.55 1018.59 1018.71 1018.75 1018.83 1018.91 1018.95 1019.03 1019.15 1019.31 1019.47 1019.51 1019.67 1019.83 1020.07 1020.19 1020.03 1019.95 1020.07 1019.99 1020.03 1020.11 1019.87 1019.83 1020.31 1020.63 1020.83 1020.79 1020.83 1020.87 1021.15 1021.51 1021.79 1021.39
1014.19 1014.59 1014.91 1015.27 1015.59 1015.79 1015.99 1016.23 1016.39 1016.55 1016.55 1016.75 1017.03 1017.19 1017.23 1017.31 1017.35 1017.43 1017.55 1017.59 1017.83 1017.91 1017.99 1018.11 1018.19 1018.35 1018.47 1018.59 1018.67 1018.79 1018.83 1018.83 1018.87 1018.91 1018.83 1018.83 1018.95 1019.11 1019.23 1019.43 1019.63 1019.71 1019.83 1019.91 1020.03 1020.11 1020.07 1020.19 1020.19 1020.27 1020.23 1020.31 1020.19 1020.27 1020.83 1020.71 1020.71 1020.83 1021.07 1021.07 1021.15 1021.39 1021.35
1014.75 1014.75 1015.07 1015.43 1015.67 1015.83 1016.03 1016.23 1016.31 1016.47 1016.63 1016.95 1017.19 1017.19 1017.31 1017.43 1017.47 1017.39 1017.51 1017.75 1017.79 1017.95 1018.11 1018.19 1018.27 1018.43 1018.47 1018.59 1018.83 1018.95 1018.99 1019.03 1019.07 1019.11 1019.07 1019.03 1019.03 1019.03 1019.11 1019.31 1019.47 1019.51 1019.59 1019.95 1019.95 1019.87 1019.91 1020.19 1020.19 1020.43 1020.23 1020.31 1020.35 1020.55 1020.67 1020.71 1020.83 1020.79 1020.99 1021.19 1021.19 1021.27 1021.31
1016.07 1015.47 1015.47 1015.87 1015.91 1016.07 1016.15 1016.27 1016.39 1016.63 1016.87 1017.11 1017.19 1017.19 1017.31 1017.43 1017.59 1017.59 1017.75 1017.83 1018.03 1018.19 1018.35 1018.35 1018.63 1018.79 1018.63 1018.75 1018.87 1019.03 1019.07 1019.07 1019.15 1019.31 1019.31 1019.31 1019.31 1019.31 1019.31 1019.35 1019.43 1019.67 1020.03 1020.15 1020.19 1020.27 1020.35 1020.43 1020.39 1020.35 1020.27 1020.35 1020.59 1020.71 1020.83 1020.63 1020.59 1020.83 1020.79 1020.95 1021.15 1021.31 1021.63
1016.07 1016.19 1015.95 1016.07 1016.11 1016.31 1016.39 1016.47 1016.71 1016.99 1017.15 1017.27 1017.31 1017.35 1017.51 1017.67 1017.71 1017.87 1018.07 1018.15 1018.27 1018.39 1018.47 1019.11 1019.67 1019.55 1019.67 1019.51 1019.11 1018.91 1019.07 1019.11 1019.23 1019.27 1019.35 1019.47 1019.55 1019.43 1019.43 1019.59 1020.03 1020.27 1020.35 1020.39 1020.51 1020.51 1020.55 1020.71 1020.79 1020.83 1020.83 1020.67 1020.67 1020.79 1020.83 1020.91 1020.87 1020.71 1020.71 1020.91 1021.03 1021.15 1021.63
1016.47 1016.39 1016.11 1016.07 1016.39 1016.63 1016.75 1016.83 1016.99 1017.19 1017.39 1017.59 1017.79 1017.75 1017.71 1017.91 1018.03 1017.99 1018.07 1018.39 1018.67 1018.75 1019.35 1019.99 1019.99 1019.87 1019.79 1019.95 1019.79 1019.23 1019.11 1019.27 1019.23 1019.35 1019.39 1019.59 1019.67 1019.67 1019.63 1019.55 1019.91 1020.31 1020.43 1020.55 1020.67 1020.83 1020.87 1020.87 1020.91 1021.03 1021.19 1021.27 1021.35 1021.27 1021.27 1021.27 1021.15 1021.07 1021.15 1021.07 1020.99 1020.95 1021.11
1016.99 1017.19 1017.03 1017.23 1017.23 1017.15 1017.19 1017.23 1017.39 1017.59 1017.87 1018.15 1018.23 1018.27 1018.35 1018.39 1018.47 1018.39 1018.39 1018.55 1018.87 1019.63 1020.43 1021.19 1020.51 1020.15 1020.11 1020.03 1020.27 1020.11 1019.59 1019.27 1019.43 1019.39 1019.47 1019.55 1019.51 1019.55 1019.67 1019.67 1019.67 1019.95 1020.11 1020.15 1020.23 1020.59 1020.79 1020.91 1020.95 1021.03 1021.11 1021.19 1021.39 1021.67 1021.63 1021.63 1021.55 1021.47 1021.39 1021.47 1021.47 1021.19 1021.27
1017.47 1017.67 1017.55 1017.79 1017.87 1017.99 1017.95 1017.95 1017.91 1018.03 1018.27 1018.39 1018.47 1018.71 1018.91 1019.03 1019.11 1019.15 1019.03 1019.39 1019.95 1020.39 1021.07 1021.75 1021.51 1020.95 1020.51 1020.47 1020.43 1020.39 1019.95 1019.47 1019.35 1019.51 1019.43 1019.51 1019.47 1019.39 1019.47 1019.63 1019.75 1019.79 1019.87 1020.27 1020.23 1020.19 1020.35 1020.71 1020.99 1021.15 1021.31 1021.43 1021.47 1021.55 1021.67 1021.79 1021.79 1021.75 1021.47 1021.51 1021.51 1021.59 1021.51
1017.83 1018.03 1017.99 1018.23 1018.43 1018.59 1018.59 1018.75 1018.75 1018.71 1018.79 1018.95 1019.15 1019.31 1019.43 1019.59 1019.63 1019.67 1019.75 1020.11 1020.87 1021.43 1021.83 1022.15 1021.99 1021.71 1021.35 1020.95 1020.91 1020.79 1020.35 1020.03 1019.47 1019.35 1019.39 1019.43 1019.47 1019.43 1019.39 1019.51 1019.71 1020.07 1020.23 1020.47 1020.39 1020.39 1020.39 1020.39 1020.59 1020.99 1021.15 1021.19 1021.15 1021.23 1021.47 1021.67 1021.79 1021.91 1021.87 1021.71 1021.55 1021.51 1021.11
1017.91 1018.15 1018.31 1018.55 1018.71 1019.03 1019.07 1019.07 1019.07 1019.19 1019.27 1019.51 1019.67 1019.79 1019.83 1019.95 1019.99 1019.95 1020.19 1020.71 1021.27 1021.83 1022.43 1022.43 1022.03 1021.91 1021.87 1021.59 1021.19 1020.99 1020.55 1020.19 1019.79 1019.79 1019.87 1019.59 1019.43 1019.47 1019.51 1019.51 1019.63 1019.99 1021.07 1021.83 1021.35 1021.15 1020.75 1020.55 1020.91 1021.15 1021.11 1021.31 1021.31 1021.31 1021.23 1021.47 1021.59 1021.55 1021.71 1021.55 1021.35 1021.19 1021.07
1017.71 1018.07 1018.39 1018.67 1018.87 1019.11 1019.23 1019.27 1019.35 1019.43 1019.63 1019.79 1019.95 1020.03 1020.11 1020.07 1020.23 1020.39 1020.67 1020.99 1021.51 1021.91 1022.43 1022.39 1022.27 1022.23 1022.07 1021.83 1021.47 1020.79 1020.43 1020.19 1020.07 1019.91 1020.03 1019.79 1019.63 1019.63 1019.67 1019.71 1019.91 1020.19 1020.23 1021.55 1021.91 1021.67 1021.11 1020.91 1020.87 1020.95 1021.11 1021.15 1021.75 1022.11 1022.35 1022.19 1022.31 1021.91 1021.39 1021.19 1021.15 1021.27 1021.43
1018.19 1018.27 1018.43 1018.71 1019.11 1019.39 1019.43 1019.43 1019.51 1019.55 1019.75 1019.95 1020.19 1020.47 1020.59 1020.67 1020.51 1020.55 1020.83 1021.11 1021.47 1022.07 1022.47 1022.83 1022.59 1022.35 1022.19 1022.03 1021.47 1020.71 1020.35 1020.11 1019.95 1019.99 1019.83 1019.75 1019.71 1020.55 1021.27 1021.31 1020.99 1020.35 1021.15 1021.67 1022.03 1022.03 1021.71 1021.43 1021.11 1020.95 1020.87 1020.99 1021.35 1021.71 1021.91 1022.11 1022.15 1022.19 1021.91 1021.71 1021.71 1021.71 1021.79
1018.67 1018.87 1018.99 1019.31 1019.59 1019.83 1019.75 1019.83 1019.91 1019.95 1020.03 1020.31 1020.31 1020.47 1020.63 1020.91 1021.19 1021.27 1021.43 1021.51 1021.79 1022.23 1022.71 1023.07 1022.95 1022.67 1022.43 1022.27 1021.99 1021.19 1020.43 1020.23 1020.27 1020.07 1019.95 1019.87 1019.91 1020.63 1021.71 1021.63 1021.11 1021.07 1021.43 1022.19 1022.55 1022.39 1022.35 1022.15 1021.47 1021.11 1021.11 1021.23 1021.51 1021.59 1021.55 1021.67 1021.83 1021.95 1022.07 1021.87 1021.79 1021.71 1021.67
1019.23 1019.35 1019.51 1019.71 1019.91 1020.19 1020.35 1020.31 1020.35 1020.51 1020.71 1020.59 1020.51 1020.67 1020.83 1021.03 1021.39 1021.59 1021.91 1021.99 1022.11 1022.43 1022.71 1023.07 1023.27 1022.95 1022.59 1022.35 1021.99 1021.43 1020.75 1020.43 1020.39 1020.71 1020.59 1020.83 1020.23 1020.63 1021.75 1022.07 1022.23 1022.23 1022.39 1022.63 1022.75 1022.83 1022.87 1022.67 1021.91 1021.27 1021.03 1021.11 1021.35 1021.39 1021.27 1021.35 1021.55 1021.51 1021.43 1021.35 1021.39 1021.51 1021.47
1019.19 1019.39 1019.67 1019.91 1019.99 1020.11 1020.39 1020.51 1020.67 1020.79 1020.99 1021.23 1021.59 1021.47 1021.27 1021.39 1021.75 1021.91 1022.07 1022.07 1022.07 1022.23 1022.71 1023.15 1023.47 1023.35 1022.83 1022.35 1022.11 1021.63 1020.87 1020.83 1020.79 1020.87 1020.83 1020.79 1020.79 1020.75 1021.27 1022.11 1022.75 1023.11 1022.91 1022.91 1022.95 1023.07 1023.03 1023.15 1022.75 1022.03 1021.47 1021.03 1020.91 1021.11 1021.55 1021.23 1021.03 1021.27 1021.35 1020.95 1020.79 1020.99 1020.95
1019.55 1019.67 1019.91 1020.19 1020.51 1020.71 1020.63 1020.63 1020.75 1020.87 1020.95 1021.23 1021.59 1021.83 1021.71 1021.67 1021.67 1021.91 1022.15 1022.39 1022.59 1022.67 1022.75 1022.95 1023.39 1023.23 1022.87 1022.59 1022.31 1021.83 1021.63 1021.99 1021.87 1021.51 1021.19 1021.15 1020.83 1020.91 1021.19 1021.99 1022.79 1023.31 1023.03 1023.15 1023.23 1023.27 1023.31 1023.35 1023.51 1023.11 1022.23 1021.39 1022.03 1022.59 1022.19 1021.07 1020.95 1020.91 1020.71 1020.47 1020.47 1020.47 1020.51
1020.03 1020.15 1020.19 1020.27 1020.31 1020.31 1020.27 1020.11 1019.95 1019.99 1020.43 1020.79 1021.19 1021.35 1021.55 1021.67 1021.91 1022.31 1022.47 1022.63 1022.83 1023.03 1023.27 1023.19 1023.19 1023.43 1023.23 1022.99 1022.83 1022.75 1022.55 1022.95 1023.35 1022.83 1021.99 1021.55 1021.67 1021.63 1021.71 1022.03 1022.91 1023.31 1023.11 1023.07 1023.15 1023.15 1023.15 1023.19 1023.23 1023.15 1022.23 1022.31 1022.47 1022.51 1022.35 1021.79 1020.91 1020.55 1020.47 1020.31 1020.23 1020.27 1020.35
1020.75 1020.67 1020.59 1020.55 1020.55 1020.55 1020.47 1020.43 1020.43 1020.43 1020.59 1020.71 1020.79 1020.91 1020.99 1021.11 1021.31 1021.63 1021.91 1022.19 1022.55 1022.79 1023.03 1023.39 1023.43 1023.39 1023.39 1023.31 1023.35 1023.39 1023.55 1023.43 1023.27 1022.95 1022.47 1022.07 1022.03 1021.95 1022.03 1022.31 1022.67 1023.03 1023.23 1023.23 1023.15 1023.15 1023.15 1023.23 1023.07 1022.71 1022.71 1022.63 1022.63 1022.55 1022.31 1021.39 1020.95 1020.67 1020.35 1020.07 1019.99 1019.99 1019.99
1021.19 1021.19 1021.15 1021.03 1020.99 1021.07 1020.95 1020.87 1020.75 1020.67 1020.59 1020.47 1020.59 1020.71 1020.67 1020.75 1020.87 1021.11 1021.31 1021.59 1021.79 1022.15 1022.59 1022.95 1023.43 1023.47 1023.59 1023.63 1023.51 1023.55 1023.51 1023.51 1023.47 1023.23 1023.11 1022.67 1022.51 1022.43 1022.55 1022.83 1023.15 1023.35 1023.31 1023.19 1023.07 1022.99 1022.87 1023.03 1022.83 1022.59 1022.67 1022.71 1022.67 1022.59 1022.19 1021.63 1021.27 1020.95 1020.83 1020.71 1020.55 1020.35 1020.27
Wind_Speed
1 4 3 3 4 6 5 5 5 5 5 5 4 5 5 6 7 6 5 4 5 6 6 6 5 5 4 2 3 3 1 2 2 1 2 4 4 4 3 2 3 4 3 5 0 1 2 6 5 4 5 6 5 4 5 4 4 4 4 4 4 4 4
3 3 3 3 4 3 5 5 5 5 5 5 5 4 5 5 5 5 6 6 5 4 6 5 5 6 6 6 5 3 4 3 1 1 2 2 5 2 5 4 5 3 6 3 2 2 4 5 5 6 6 5 5 4 4 3 4 4 5 4 4 5 6
5 4 2 1 2 3 4 6 5 5 5 5 5 5 4 5 4 4 5 5 5 6 5 4 6 6 6 6 6 5 4 4 2 4 3 2 3 1 3 3 3 3 3 6 7 5 4 1 4 7 6 7 6 4 4 5 5 5 5 4 4 6 6
8 6 4 2 3 4 7 7 7 6 6 5 5 5 4 4 4 4 4 4 3 3 4 4 4 6 5 6 5 6 5 5 4 3 3 2 0 1 4 4 3 1 2 4 3 3 5 4 5 6 6 6 6 7 4 4 5 6 6 5 5 5 6
8 5 5 5 6 8 8 7 6 6 6 6 5 5 4 4 4 4 3 4 4 3 3 4 4 4 5 5 5 5 4 4 3 3 3 3 4 3 3 3 2 3 0 1 3 3 3 3 4 6 6 7 7 6 6 5 5 6 7 7 6 6 7
7 6 3 2 5 7 6 6 6 6 5 5 4 5 5 5 4 4 4 4 4 3 3 3 3 3 4 5 5 5 6 7 6 5 4 3 3 4 3 4 1 1 2 3 1 5 6 2 3 6 6 7 6 6 6 7 6 7 6 6 6 6 6
6 5 3 4 11 7 6 6 6 6 5 6 5 5 6 5 5 4 3 2 2 3 3 3 3 3 4 4 5 5 5 4 5 7 4 5 4 2 1 2 2 1 1 1 1 1 3 4 2 3 6 7 7 7 7 7 7 6 6 5 7 6 6
6 7 3 10 9 7 7 7 6 6 6 6 6 5 7 6 5 4 3 3 2 2 2 3 3 3 3 3 1 4 3 4 4 6 6 6 5 5 3 3 2 1 2 1 2 6 3 1 5 5 6 8 6 6 6 6 6 7 8 8 7 8 8
6 7 9 11 6 6 7 6 6 6 5 6 6 7 7 6 6 6 5 3 2 2 3 3 3 4 3 2 4 3 4 2 4 5 7 9 7 9 6 3 3 3 3 1 3 2 2 0 4 4 3 5 7 8 6 6 5 7 8 6 7 8 7
7 9 9 8 7 6 6 6 6 5 6 5 6 7 6 6 6 6 5 4 3 2 2 2 2 3 3 2 3 4 3 3 4 4 4 4 4 6 5 5 3 2 3 0 3 2 2 2 3 4 3 4 5 6 7 7 6 5 6 6 6 7 8
10 10 8 7 7 7 7 6 6 5 6 5 6 6 6 6 6 5 5 4 3 3 3 3 3 4 3 3 3 3 3 4 4 4 4 4 5 5 6 5 3 2 2 5 3 4 4 4 5 4 4 4 4 5 5 7 7 6 7 8 8 8 8
11 10 9 9 8 8 8 7 7 6 7 6 6 6 6 7 6 5 5 4 4 4 3 3 3 4 4 4 4 4 4 3 3 3 3 4 5 4 5 6 5 4 4 6 6 6 6 5 4 4 3 3 3 5 6 6 6 3 4 3 8 8 9
12 11 10 10 8 9 9 9 7 7 7 7 6 7 7 7 7 6 5 5 5 5 4 4 3 5 4 4 5 4 3 3 3 3 4 4 4 5 6 8 6 7 6 5 6 6 5 4 3 5 5 5 5 6 7 7 6 7 6 6 5 7 9
12 10 11 10 9 9 7 8 7 6 7 6 7 7 7 7 7 6 6 6 6 5 5 4 4 5 4 4 4 4 4 3 3 5 4 5 5 6 7 7 5 3 5 6 7 6 5 4 4 4 5 5 5 5 9 8 7 6 4 5 5 7 8
11 11 11 10 9 9 8 9 7 7 7 6 7 7 7 6 6 6 6 6 6 6 6 5 5 5 5 5 4 4 4 5 3 4 5 6 7 6 6 7 9 7 6 7 8 8 7 5 5 6 5 5 5 5 3 6 8 6 7 5 5 7 7
12 12 11 9 10 10 9 8 8 7 6 6 6 6 6 7 7 6 6 5 6 6 7 6 4 5 5 5 5 4 4 6 4 5 5 6 7 6 7 7 7 7 6 8 7 6 6 6 5 5 5 4 5 2 2 9 7 8 8 6 6 7 7
13 12 11 9 10 10 9 7 8 7 6 6 6 5 6 7 7 7 6 6 6 6 7 6 6 6 6 6 5 5 5 6 6 5 5 5 6 6 6 7 7 7 8 7 6 6 5 4 3 5 4 5 3 2 2 1 2 8 6 8 7 8 8
12 13 12 10 11 10 10 9 6 6 6 6 7 5 6 7 7 7 6 6 7 6 6 7 7 6 6 5 6 5 5 5 5 6 6 6 6 6 7 7 8 8 7 6 5 5 4 4 3 5 5 5 5 5 3 3 2 4 6 7 6 6 8
13 12 12 11 11 10 10 9 9 5 7 7 6 6 7 6 6 7 7 6 7 7 7 7 6 6 6 5 5 5 4 5 5 6 6 7 7 5 6 7 7 7 6 6 5 3 4 5 3 4 4 3 4 6 4 5 4 4 3 6 6 5 6
11 11 11 11 10 10 9 9 9 8 7 7 7 6 6 6 5 6 6 6 6 6 7 6 7 6 6 5 6 5 5 5 5 4 4 6 7 7 7 6 5 5 4 4 5 5 4 3 2 2 1 1 4 4 5 4 5 5 5 5 7 7 7
5 10 9 10 10 9 9 8 8 7 7 7 7 7 6 6 6 6 6 5 5 5 6 6 6 6 6 6 6 5 6 5 5 5 4 4 4 4 5 6 6 7 5 5 2 4 4 3 4 3 2 3 3 3 3 3 3 4 5 6 6 6 7
7 2 9 8 8 9 9 8 7 7 7 7 6 6 6 6 5 6 6 5 6 5 5 5 3 2 3 7 5 5 5 5 6 5 5 5 4 4 4 3 3 6 7 6 8 8 7 6 3 2 3 3 2 2 3 4 4 5 5 5 6 4 4
6 6 1 8 9 8 8 8 8 7 7 6 6 6 6 6 4 6 6 5 6 5 4 6 7 11 10 6 1 5 4 4 5 5 5 5 4 4 4 4 6 8 8 8 8 9 9 9 7 5 4 3 2 2 3 4 5 4 5 5 5 5 8
7 7 3 8 8 9 7 7 8 8 7 6 6 4 5 6 5 4 6 6 5 4 7 5 11 11 13 11 8 3 5 4 4 4 4 4 4 4 3 4 5 5 5 5 3 5 5 6 5 5 6 5 4 2 2 4 4 4 5 5 5 7 7
8 6 10 10 8 6 6 8 8 8 8 8 6 5 4 4 4 3 4 6 5 8 6 11 12 12 11 13 10 7 6 4 3 4 4 4 5 4 5 3 4 4 4 4 4 6 5 4 3 3 2 3 3 2 1 2 4 4 4 5 6 7 6
7 6 8 8 8 8 8 7 7 7 8 7 6 6 6 5 4 4 4 8 9 8 6 11 12 12 11 11 13 9 6 5 5 4 4 5 5 5 4 5 5 5 3 6 3 5 6 6 3 2 1 2 5 5 5 6 4 4 5 6 6 6 7
8 7 8 8 6 7 7 7 6 6 6 6 6 6 6 5 5 4 5 7 7 7 7 10 11 11 10 9 9 8 5 8 5 5 6 6 5 5 6 4 6 4 2 2 3 5 5 6 6 4 5 6 6 7 7 8 9 6 4 5 6 7 6
10 9 8 7 7 5 4 4 5 6 6 6 5 4 5 4 4 4 7 6 6 6 5 10 11 12 11 10 9 5 4 5 5 4 6 5 4 4 4 5 5 4 9 3 7 9 6 6 4 6 4 5 5 8 2 3 5 6 6 6 7 9 8
10 9 9 8 7 6 4 4 5 6 5 6 5 4 3 4 4 5 7 7 5 5 6 12 11 11 10 11 10 3 3 5 5 6 7 7 5 6 6 7 6 6 3 8 2 6 4 3 5 6 6 6 4 3 5 7 7 10 5 2 2 3 3
7 8 8 9 9 6 4 4 4 5 6 5 5 4 5 5 5 6 7 6 7 5 5 9 10 10 10 12 8 3 4 5 5 5 6 6 2 5 9 12 10 8 8 4 8 9 10 7 6 8 8 7 3 4 5 5 6 2 4 5 3 3 2
11 10 9 9 8 6 6 5 4 2 3 5 6 6 5 5 7 8 7 7 7 6 5 7 10 9 10 11 8 5 4 4 6 5 4 5 3 5 6 10 9 7 7 5 8 11 12 9 6 7 7 6 4 7 6 5 5 4 2 3 2 2 2
9 9 9 8 6 7 6 5 6 7 7 7 5 6 6 6 7 7 5 6 8 7 6 6 10 9 9 10 9 5 5 4 4 5 4 4 3 5 6 8 12 11 8 6 10 9 10 8 7 8 8 7 7 8 7 4 6 6 4 3 2 2 3
10 10 11 8 7 8 6 6 7 7 7 7 6 5 5 7 7 6 5 5 5 6 7 6 8 9 10 11 10 5 4 5 4 4 4 5 4 4 6 6 7 8 9 8 8 8 9 8 6 8 8 8 9 3 3 4 0 4 6 6 4 5 4
11 10 9 8 7 6 6 7 7 7 7 7 6 4 5 5 6 6 6 6 7 7 6 7 8 11 12 13 15 12 7 7 7 5 5 4 4 4 2 6 5 6 8 8 7 6 5 6 5 6 7 7 6 5 9 7 3 6 6 5 6 6 6
10 9 9 7 7 7 5 4 5 7 6 6 7 6 6 5 5 5 4 5 6 7 7 9 7 10 12 13 14 14 8 6 5 5 6 5 6 5 5 5 5 5 9 9 7 7 6 6 6 4 6 10 12 12 9 8 8 6 6 6 7 7 6
9 7 7 8 7 6 5 5 5 5 5 4 4 4 4 4 5 5 5 5 5 6 6 6 8 8 9 11 10 9 7 6 10 6 6 5 4 4 5 6 7 11 10 9 8 7 6 6 6 4 7 9 9 11 9 5 7 7 9 9 8 8 8
8 7 8 7 7 7 6 4 4 4 3 2 4 3 4 3 3 4 4 5 5 5 6 7 6 8 7 7 7 5 5 4 4 5 5 4 5 5 6 5 4 7 8 8 9 8 8 5 5 6 5 6 7 6 5 5 5 5 6 6 6 5 5
Wind_Direction
252 138 176 177 169 201 211 200 165 173 170 156 171 158 157 158 167 166 168 180 178 179 175 179 173 170 171 117 152 171 162 124 122 175 195 183 201 176 210 186 271 133 214 215 95 151 127 141 136 127 110 100 91 71 73 84 90 106 103 103 102 107 103
180 138 144 169 208 180 217 190 172 167 162 153 160 152 156 164 161 173 171 178 168 186 179 175 169 168 170 158 168 166 186 137 114 118 247 221 226 210 179 210 206 199 182 139 220 168 178 144 134 150 141 126 98 98 100 103 106 111 109 107 105 99 101
170 147 99 214 232 206 220 184 171 162 154 150 149 156 158 152 167 153 172 175 177 185 182 182 166 169 168 166 174 190 176 126 153 200 186 228 221 284 253 228 212 223 249 174 163 178 80 78 156 163 167 155 134 117 133 132 138 128 128 123 118 110 114
171 162 165 213 226 247 195 178 177 165 151 144 145 137 158 138 134 154 158 161 172 175 179 178 189 157 177 166 177 188 188 160 200 165 171 195 335 244 254 229 232 14 1 353 46 100 154 157 171 162 162 143 122 126 123 129 126 131 121 114 108 110 102
161 162 161 201 220 210 189 174 177 159 157 143 149 135 152 129 146 139 149 157 161 171 176 163 191 180 166 166 173 189 166 174 165 159 202 183 210 204 235 311 250 97 312 284 70 98 267 155 152 136 138 131 139 123 125 137 143 124 127 138 127 121 102
163 145 155 234 241 209 183 182 165 164 158 147 162 150 143 152 157 142 160 171 159 175 166 175 179 183 169 175 171 185 175 179 177 172 200 198 212 233 202 224 273 163 138 222 93 153 190 172 175 156 144 141 123 132 138 145 141 135 128 125 126 109 121
153 129 133 217 232 191 186 172 170 160 158 154 160 163 150 165 156 146 153 143 136 139 151 156 168 174 191 194 174 177 173 179 174 160 167 189 210 227 263 225 229 152 91 264 222 245 152 160 200 192 141 123 144 145 153 156 142 135 120 117 120 144 110
150 124 144 228 215 188 176 171 173 164 160 159 161 150 154 161 139 143 140 130 143 143 142 155 163 174 164 209 129 182 169 183 183 165 164 181 191 188 185 210 184 157 191 135 200 245 184 219 135 151 160 146 146 144 147 150 142 134 143 150 137 90 92
143 141 197 212 191 182 175 169 171 163 153 155 153 146 157 151 149 148 153 143 148 156 164 164 165 155 157 205 161 182 177 180 174 170 176 182 175 169 187 171 204 156 203 167 166 188 164 249 157 144 160 157 155 151 152 131 143 132 135 132 110 114 128
161 183 203 184 177 169 161 173 161 166 145 157 152 152 157 151 158 164 151 132 153 136 118 120 140 137 147 177 146 177 163 179 173 185 166 167 156 149 143 161 189 156 104 18 144 147 127 178 192 136 163 143 165 146 150 148 139 139 139 126 139 138 133
174 186 172 170 162 166 158 161 159 158 153 153 151 159 158 157 160 164 136 132 143 140 148 159 156 123 150 153 139 150 165 172 182 159 172 159 148 164 155 152 148 139 161 179 153 171 165 193 144 156 152 156 158 153 153 152 148 160 132 166 139 137 137
164 159 161 165 158 160 163 155 158 153 152 147 161 155 163 159 163 159 144 141 151 149 149 113 136 152 146 138 150 148 154 167 163 170 155 156 154 165 151 138 147 182 179 150 189 182 150 146 159 150 128 117 128 154 135 135 143 112 165 152 118 140 139
158 154 155 159 158 159 174 151 157 151 155 156 158 159 165 165 161 162 153 146 160 160 155 158 150 122 143 144 150 149 137 160 154 168 167 160 160 165 160 158 161 151 194 179 137 125 147 164 138 112 123 127 129 133 143 150 143 144 184 135 138 143 145
152 154 152 155 158 158 158 149 159 156 152 160 156 164 168 163 164 170 152 159 162 165 153 163 142 141 151 151 127 125 142 145 170 161 167 158 173 160 152 131 172 195 163 142 132 152 151 134 130 127 112 127 134 183 154 161 136 143 91 112 160 155 153
150 150 149 152 155 155 157 160 160 156 160 157 166 166 170 164 166 174 162 158 162 160 166 159 162 158 147 130 138 148 149 144 154 145 164 166 162 165 136 151 152 172 164 139 164 153 150 164 155 149 146 139 145 126 177 148 129 149 146 161 179 157 152
150 156 149 149 157 157 158 164 164 163 169 161 171 174 164 170 170 171 161 157 164 162 171 159 167 157 134 153 152 131 120 118 142 149 160 158 155 156 154 157 146 148 138 157 167 145 154 178 173 138 134 135 121 134 14 113 151 152 160 169 176 169 165
155 151 149 151 154 158 153 157 172 163 167 167 166 182 161 175 168 168 157 162 157 166 164 156 165 161 164 160 149 141 130 133 143 147 147 158 144 147 147 147 146 147 150 160 160 143 181 177 177 128 130 108 117 61 74 360 198 144 171 160 189 187 172
155 154 150 149 153 157 155 166 157 173 162 170 161 172 162 177 167 165 162 165 158 162 157 166 167 169 154 162 164 151 161 145 136 141 137 128 131 141 150 148 148 146 154 155 150 169 151 182 154 142 163 157 166 153 168 206 219 193 162 174 175 220 165
155 155 151 151 154 154 157 155 163 162 166 164 155 166 171 169 174 156 173 170 159 161 167 166 160 155 156 159 151 165 143 142 137 127 141 147 134 134 141 148 150 153 157 154 164 168 160 174 166 173 179 215 158 156 168 174 222 224 222 184 179 210 197
155 154 151 151 152 154 153 152 158 156 166 154 155 168 167 161 171 164 173 164 159 164 156 163 159 156 154 161 160 153 156 154 141 140 148 136 144 153 154 148 157 157 162 158 159 167 168 178 173 225 166 225 275 132 173 205 205 201 222 222 198 204 213
153 146 148 149 154 149 146 150 154 149 155 149 161 163 163 160 166 180 145 159 151 149 153 164 150 158 163 154 158 159 156 161 146 147 138 135 135 148 138 151 166 172 165 136 187 167 176 187 179 226 208 213 226 215 221 207 230 234 204 218 241 205 221
341 121 141 146 155 150 148 146 142 141 143 148 161 157 156 153 168 149 149 150 139 143 164 148 100 30 146 151 159 165 163 166 152 152 155 143 149 148 153 140 130 68 63 67 66 55 54 41 20 260 180 201 212 239 248 270 225 220 232 227 210 220 250
89 17 183 151 151 147 147 139 135 137 141 141 143 143 149 152 160 143 149 141 141 157 120 61 23 29 24 13 255 171 174 155 171 159 168 140 157 166 155 135 75 69 57 53 55 49 48 50 40 44 12 18 329 293 278 257 265 261 253 242 252 238 215
44 40 52 151 148 149 141 140 139 136 130 125 122 125 134 143 151 153 145 138 141 120 60 24 11 32 11 19 3 351 177 171 183 174 174 177 163 187 176 167 128 114 133 120 95 85 73 45 70 58 58 63 52 2 301 291 275 293 288 272 248 231 236
68 56 61 52 57 73 137 144 132 125 125 128 124 123 121 103 74 85 132 141 109 69 59 9 5 23 19 6 20 355 319 205 202 192 203 201 200 194 204 195 190 153 199 196 177 158 159 149 113 71 36 358 15 82 312 303 303 281 274 285 288 287 283
91 78 75 67 53 54 56 71 93 108 101 84 91 92 76 78 77 63 65 69 61 55 50 11 6 12 22 14 4 352 322 302 208 223 221 216 229 220 205 202 208 202 162 85 227 207 199 181 179 196 305 249 254 239 215 226 254 277 301 282 276 280 272
96 89 88 87 65 43 52 58 67 72 74 68 70 74 66 54 44 37 51 69 65 51 44 8 4 11 18 18 12 351 303 313 273 245 230 232 235 248 238 224 222 181 250 87 225 254 249 240 194 195 221 237 243 220 217 204 219 244 251 269 282 283 287
118 113 110 108 101 84 63 66 71 76 75 74 69 73 84 78 55 48 71 72 73 58 39 10 14 11 5 5 4 328 293 294 291 292 286 267 253 255 250 239 254 246 126 209 350 311 277 263 267 259 278 269 275 281 295 336 272 224 220 223 244 255 273
125 126 124 107 97 97 87 84 80 80 84 80 74 73 69 85 91 97 100 95 85 70 32 19 17 13 3 4 342 289 270 260 252 253 254 260 236 238 238 234 234 249 289 105 198 323 354 338 280 271 251 240 269 286 347 327 346 347 341 322 339 10 9
104 109 107 107 100 95 98 91 111 118 116 114 118 100 73 57 61 87 99 103 96 72 49 16 13 16 8 4 350 325 275 255 254 251 256 261 279 1 355 353 345 317 46 64 9 348 5 348 273 271 271 269 271 277 190 213 259 320 10 52 60 43 3
75 79 86 96 83 62 53 46 47 30 113 138 131 124 113 80 58 51 47 73 72 77 62 26 16 16 15 6 350 319 306 290 304 296 265 256 278 83 36 9 20 33 58 50 6 8 360 346 290 285 286 289 326 287 262 203 196 206 118 95 53 356 309
79 80 82 82 80 74 56 57 69 59 42 39 67 110 102 94 82 73 72 82 90 78 67 46 26 17 24 19 5 337 315 281 255 257 280 278 267 109 124 57 41 50 54 35 30 10 4 342 296 285 286 273 255 254 284 232 219 215 208 208 218 222 227
79 74 71 69 77 88 95 88 84 85 76 73 55 53 84 99 106 105 93 75 76 88 81 55 30 23 34 29 17 335 334 5 347 351 320 317 341 343 105 111 67 58 64 45 30 12 355 356 317 311 306 285 276 280 322 284 162 267 246 217 200 185 213
64 74 86 88 89 89 87 95 102 101 104 101 95 71 66 75 82 83 80 76 69 56 53 66 43 29 36 37 30 20 46 27 4 354 348 333 318 325 16 88 82 34 41 43 32 7 351 326 322 300 296 294 17 332 315 295 195 198 251 263 260 253 255
51 52 52 59 68 76 82 100 129 136 124 126 130 135 132 133 119 110 103 87 82 78 54 48 63 42 34 36 40 38 45 37 11 333 338 347 13 15 33 79 71 26 19 14 6 358 342 326 315 288 303 336 339 1 342 314 291 263 243 241 242 246 250
48 44 47 49 52 57 61 67 71 80 111 113 120 130 140 139 144 133 135 129 122 106 95 84 70 67 54 51 42 46 41 31 351 337 345 343 9 346 27 18 27 17 356 342 336 325 304 303 274 267 333 337 342 337 322 297 302 284 269 267 259 246 251
53 54 47 49 56 50 47 51 49 42 37 123 140 150 141 155 153 150 143 134 126 127 122 104 103 100 96 87 82 64 37 18 10 357 329 343 1 2 7 12 353 337 330 318 307 300 294 259 262 289 302 322 328 310 291 291 278 294 312 330 327 302 285